EW0401 Weather Reports


Display with metric or nautical units.
time (UTC)temp
F
wind
direction
speed
MPH
gust
MPH
rain 1hr
in
rain 24hr
in
rain mn
in
humidity
%
barometer
mb
20260506213056 83 0 1.0 5.0 0.00 0.01 0.01 83 1009.1
20260506211555 83 0 0.0 4.0 0.00 0.01 0.01 83 1009.1
20260506210054 83 0 0.0 3.0 0.00 0.01 0.01 83 1009.2
20260506204554 83 0 0.0 5.0 0.00 0.01 0.01 83 1009.4
20260506203055 82 175 1.0 7.0 0.00 0.01 0.01 83 1009.6
20260506201607 82 184 1.0 6.0 0.00 0.01 0.01 84 1009.7
20260506200054 82 0 0.0 6.0 0.00 0.01 0.01 84 1010.1
20260506194557 83 0 0.0 6.0 0.00 0.01 0.01 84 1010.2
20260506193058 83 217 0.0 8.0 0.00 0.01 0.01 83 1010.2
20260506191559 82 0 0.0 5.0 0.00 0.01 0.01 85 1010.2
20260506190056 82 0 0.0 3.0 0.00 0.01 0.01 85 1010.4
20260506184558 81 0 0.0 6.0 0.00 0.01 0.01 85 1010.8
20260506183055 81 0 0.0 3.0 0.00 0.01 0.01 86 1010.9
20260506181556 80 0 0.0 2.0 0.00 0.01 0.01 86 1011.0
20260506180053 80 0 0.0 3.0 0.00 0.01 0.01 86 1011.2
20260506174552 80 0 0.0 3.0 0.00 0.01 0.01 87 1011.3
20260506173112 80 0 0.0 2.0 0.00 0.01 0.01 87 1011.5
20260506171559 79 0 0.0 2.0 0.01 0.01 0.01 88 1011.7
20260506170057 79 348 0.0 2.0 0.01 0.01 0.01 89 1011.7
20260506164555 78 0 0.0 2.0 0.01 0.01 0.01 89 1011.8
20260506163102 78 0 0.0 2.0 0.01 0.01 0.01 88 1011.7
20260506161559 78 0 0.0 3.0 0.00 0.00 0.00 88 1011.7
20260506160052 78 197 0.0 3.0 0.00 0.00 0.00 88 1011.5
20260506154601 78 0 0.0 3.0 0.00 0.00 0.00 87 1011.4
20260506153054 79 0 0.0 3.0 0.00 0.00 0.00 87 1011.1
20260506151557 79 192 0.0 4.0 0.00 0.00 0.00 87 1011.0
20260506150059 79 0 0.0 6.0 0.00 0.00 0.00 88 1010.6
20260506144554 79 0 0.0 2.0 0.00 0.00 0.00 88 1010.4
20260506143054 78 0 0.0 6.0 0.00 0.00 0.00 88 1010.6
20260506141554 78 263 0.0 3.0 0.00 0.00 0.00 89 1010.7
20260506140101 77 0 0.0 3.0 0.00 0.00 0.00 90 1010.6
20260506134556 77 0 0.0 4.0 0.00 0.00 0.00 90 1010.6
20260506133100 76 261 0.0 1.0 0.00 0.00 0.00 90 1010.8
20260506131552 76 0 0.0 2.0 0.00 0.00 0.00 90 1010.7
20260506130056 76 0 0.0 0.0 0.00 0.00 0.00 90 1010.8
20260506124559 76 0 0.0 2.0 0.00 0.00 0.00 90 1010.8
20260506124508 76 190 0.0 2.0 0.00 0.00 0.00 91 1010.3
20260506123053 76 0 0.0 0.0 0.00 0.00 0.00 90 1010.5
20260506121553 76 0 0.0 2.0 0.00 0.00 0.00 90 1010.3
20260506120108 75 0 0.0 2.0 0.00 0.00 0.00 90 1010.2
20260506114609 75 0 0.0 3.0 0.00 0.00 0.00 90 1009.9
20260506113050 75 0 0.0 3.0 0.00 0.00 0.00 90 1009.7
20260506111556 75 0 0.0 1.0 0.00 0.00 0.00 90 1009.4
20260506110057 75 0 0.0 2.0 0.00 0.00 0.00 90 1009.5
20260506104552 75 0 0.0 3.0 0.00 0.00 0.00 90 1009.5
20260506103055 75 0 0.0 2.0 0.00 0.00 0.00 89 1009.4
20260506101553 75 0 0.0 3.0 0.00 0.00 0.00 89 1009.4
20260506100055 76 0 0.0 2.0 0.00 0.00 0.00 89 1009.4
20260506094552 76 0 0.0 3.0 0.00 0.00 0.00 89 1009.3
20260506093107 76 0 0.0 2.0 0.00 0.00 0.00 89 1009.3
20260506091554 76 0 0.0 0.0 0.00 0.00 0.00 89 1009.5
20260506090058 76 0 0.0 0.0 0.00 0.00 0.00 88 1009.6
20260506084554 76 0 0.0 1.0 0.00 0.00 0.00 88 1009.7
20260506083055 76 0 0.0 2.0 0.00 0.00 0.00 88 1009.8
20260506081553 76 0 0.0 0.0 0.00 0.00 0.00 88 1009.7
20260506080111 76 0 0.0 2.0 0.00 0.00 0.00 88 1009.8
20260506073105 76 0 0.0 4.0 0.00 0.00 0.00 88 1010.2
20260506071557 76 256 0.0 4.0 0.00 0.00 0.00 88 1010.2
20260506061601 76 0 0.0 6.0 0.00 0.00 0.00 88 1010.4
20260506044605 77 0 0.0 2.0 0.00 0.00 0.00 87 1010.7
20260506043053 77 105 0.0 4.0 0.00 0.00 0.00 87 1010.6
20260506041605 77 0 0.0 6.0 0.00 0.00 0.00 87 1010.4
20260506040100 77 0 0.0 5.0 0.00 0.00 0.00 87 1010.3
20260506034558 77 0 0.0 4.0 0.00 0.00 0.00 87 1010.3
20260506033056 77 0 0.0 2.0 0.00 0.00 0.00 88 1010.2
20260506031556 77 0 0.0 2.0 0.00 0.00 0.00 87 1010.0
20260506030054 77 0 0.0 4.0 0.00 0.00 0.00 88 1009.9
20260506024608 77 238 0.0 4.0 0.00 0.00 0.00 88 1009.5
20260506023057 77 0 0.0 3.0 0.00 0.00 0.00 87 1009.3
20260506021553 77 0 0.0 2.0 0.00 0.00 0.00 87 1009.1
20260506020117 77 0 0.0 4.0 0.00 0.00 0.00 87 1009.0
20260506014554 77 0 1.0 7.0 0.00 0.00 0.00 87 1008.8
20260506013051 77 234 0.0 2.0 0.00 0.00 0.00 87 1008.6
20260506011552 77 244 0.0 3.0 0.00 0.00 0.00 86 1008.6
20260506010053 77 186 0.0 5.0 0.00 0.00 0.00 86 1008.6
20260506004550 78 0 0.0 4.0 0.00 0.00 0.00 86 1008.3
20260506003053 78 213 0.0 8.0 0.00 0.00 0.00 86 1008.2
20260506001602 78 188 0.0 4.0 0.00 0.00 0.00 85 1008.2
20260506000113 79 282 0.0 3.0 0.00 0.00 0.00 85 1008.0
20260505234552 79 0 1.0 7.0 0.00 0.00 0.00 85 1008.2
20260505233053 79 226 0.0 5.0 0.00 0.00 0.00 84 1008.3
20260505231556 79 290 1.0 6.0 0.00 0.00 0.00 84 1008.3
20260505230052 80 0 0.0 7.0 0.00 0.00 0.00 84 1008.3
20260505224552 80 0 2.0 11.0 0.00 0.00 0.00 84 1008.2
20260505223053 80 0 0.0 8.0 0.00 0.00 0.00 83 1008.3
20260505221557 80 184 1.0 5.0 0.00 0.00 0.00 83 1008.3
20260505220106 80 252 2.0 8.0 0.00 0.00 0.00 83 1008.4
20260505214601 80 184 1.0 14.0 0.00 0.00 0.00 83 1008.5